User: anonymous   Login
Location: Theydon Bois
(51.6750°N, 0.1050°E)
Time: 20:28:59
(UTC+01:00)
Language:

NOSS 3-3 (A) - Orbit

View from above orbital plane
View from above orbital plane
View from above satellite
View from above satellite

Ground track
Ground track

The orbit data is extracted from the following two-line orbital elements,

1 28537U 05004A   18109.06392971 0.00000000  00000-0  00000-0 0    03
2 28537  63.4307 128.6589 0297740 357.8610   2.1390 13.40753793    05
Epoch (UTC): 19 April 2018 01:32:03
Eccentricity: 0.0297740
inclination: 63.4307°
perigee height: 883 km
apogee height: 1329 km
right ascension of ascending node: 128.6589°
argument of perigee: 357.8610°
revolutions per day: 13.40753793
mean anomaly at epoch: 2.1390°
orbit number at epoch: 0

The dashed part of the orbit path shows where the satellite is in the earth's shadow,  

DLR